Location: Unspecified
(42.3650°N, 71.1030°W)
Time: 10:10:04
(UTC+00:00)

Transit 4A - Pass Details

Date: 01 July 2024
Orbit: 870 x 973 km, 66.8° (Epoch: 17 July)

Event Time Altitude Azimuth Distance (km) Brightness Sun altitude
Rises 00:57:31 0° 207° (SSW) 3,459 10.8 -5.7°
Reaches altitude 10° 01:00:00 10° 207° (SSW) 2,517 10.1 -6.0°
Maximum altitude 01:05:48 86° 119° (ESE) 877 7.8 -6.9°
Drops below altitude 10° 01:11:39 10° 31° (NNE) 2,527 10.3 -7.7°
Sets 01:14:08 0° 31° (NNE) 3,474 11.0 -8.0°
